{"data":{"norad_id":55937,"epoch":"2026-09-20T22:00:03.000096Z","epoch_age_seconds":70108,"freshness":"FRESH","line1":"1 55937U 23037Z   26263.91670139  .00022096  00000+0  15939-2 0  9996","line2":"2 55937  70.0004 152.1881 0005011 284.0737  93.9784 15.04089313  5713","mean_motion":15.04089313,"eccentricity":0.0005011,"inclination_deg":70.0004,"raan_deg":152.1881,"arg_perigee_deg":284.0737,"mean_anomaly_deg":93.9784,"bstar":0.0015939,"rev_number":571,"period_min":95.738995520674,"perigee_km":550.82870024372,"apogee_km":557.77639115642,"semimajor_km":6932.4395457001,"source":"CELESTRAK","updated_at":"2026-09-21T09:00:33.326912Z"}}